EW6655 Weather Reports


time (UTC)temp
C
wind
direction
speed
KPH
gust
KPH
rain 1hr
cm
rain 24hr
cm
rain mn
cm
humidity
%
barometer
mb
20260504090113 15 213 4.8 9.7 0.00 0.03 0.00 73 1013.0
20260504081540 14 261 3.2 11.3 0.00 0.03 0.00 79 1012.8
20260504050014 9 267 1.6 6.4 0.00 0.03 0.00 91 1012.0
20260504044530 8 194 1.6 8.0 0.00 0.03 0.00 92 1011.7
20260504043014 8 213 1.6 9.7 0.00 0.03 0.00 91 1011.6
20260504041509 8 229 1.6 8.0 0.00 0.03 0.00 91 1011.4
20260504040008 8 275 1.6 4.8 0.00 0.03 0.00 91 1011.5
20260504034507 8 277 0.0 4.8 0.00 0.03 0.00 91 1011.7
20260504033009 9 191 1.6 9.7 0.00 0.03 0.00 91 1011.7
20260504031505 9 263 1.6 8.0 0.00 0.03 0.00 90 1011.7
20260504030003 9 248 3.2 9.7 0.00 0.03 0.00 90 1011.7
20260504024503 9 251 3.2 11.3 0.00 0.03 0.00 90 1011.8
20260504023059 9 253 3.2 8.0 0.00 0.03 0.00 89 1011.6
20260504021558 10 241 1.6 11.3 0.00 0.03 0.00 90 1011.6
20260504020057 9 217 4.8 14.5 0.00 0.03 0.00 90 1011.9
20260504014557 9 254 3.2 12.9 0.00 0.03 0.00 91 1011.9
20260504013057 9 254 1.6 6.4 0.00 0.03 0.00 91 1011.9
20260504011556 9 203 1.6 11.3 0.00 0.03 0.00 91 1011.8
20260504010058 10 259 1.6 9.7 0.00 0.03 0.00 91 1011.8
20260504004552 10 240 3.2 9.7 0.00 0.03 0.00 91 1011.8
20260504003051 10 247 1.6 6.4 0.00 0.03 0.00 90 1011.8
20260504001607 10 250 3.2 8.0 0.00 0.03 0.00 91 1011.8
20260504000049 10 240 1.6 11.3 0.00 0.03 0.00 90 1011.9
20260503234546 10 228 3.2 8.0 0.00 0.03 0.00 91 1011.8
20260503233044 10 263 1.6 9.7 0.00 0.03 0.00 90 1011.9
20260503231543 10 242 3.2 8.0 0.00 0.03 0.00 90 1011.9
20260503230042 10 219 3.2 8.0 0.00 0.03 0.00 90 1012.0
20260503224540 11 226 4.8 11.3 0.00 0.03 0.00 90 1012.0
20260503223041 11 209 3.2 6.4 0.00 0.03 0.00 90 1011.8
20260503221542 11 209 1.6 4.8 0.00 0.03 0.00 89 1011.8
20260503220042 11 273 1.6 6.4 0.00 0.03 0.00 89 1011.8
20260503214533 11 242 4.8 12.9 0.00 0.03 0.03 89 1011.9
20260503213038 11 263 3.2 11.3 0.00 0.03 0.03 88 1012.0
20260503211533 11 252 3.2 14.5 0.00 0.03 0.03 87 1011.8
20260503210029 11 246 6.4 11.3 0.00 0.03 0.03 87 1011.8
20260503204528 12 246 6.4 17.7 0.00 0.03 0.03 86 1011.6
20260503203029 12 244 6.4 19.3 0.00 0.03 0.03 86 1011.6
20260503201530 12 281 4.8 17.7 0.00 0.03 0.03 86 1011.5
20260503200031 12 253 8.0 16.1 0.00 0.03 0.03 85 1011.5
20260503194528 12 251 8.0 19.3 0.00 0.03 0.03 86 1011.5
20260503193024 12 177 8.0 17.7 0.00 0.03 0.03 86 1011.6
20260503191526 12 238 8.0 17.7 0.00 0.03 0.03 85 1011.7
20260503190027 12 257 6.4 16.1 0.00 0.03 0.03 85 1011.6
20260503184526 12 222 4.8 14.5 0.00 0.03 0.03 84 1011.5
20260503183030 12 227 4.8 22.5 0.00 0.03 0.03 83 1011.4
20260503181528 12 225 6.4 17.7 0.00 0.03 0.03 83 1011.2
20260503180019 12 251 8.0 17.7 0.00 0.03 0.03 83 1011.0
20260503174520 12 230 8.0 22.5 0.00 0.03 0.03 83 1010.8
20260503173038 13 253 3.2 19.3 0.00 0.03 0.03 84 1010.8
20260503171517 13 187 8.0 19.3 0.00 0.03 0.03 84 1010.8
20260503100130 15 236 4.8 22.5 0.00 0.00 0.00 57 1011.0